Hourly Weather Oudtshoorn

Today, 5 December, Saturday

Time Temperature Precipitation Wind Pressure Humidity
00:00 +15°C° 0 mm 1 mps 732 mmHg 80%
01:00 +15°C° 0 mm 1 mps 731 mmHg 80%
02:00 +14°C° 0 mm 1 mps 731 mmHg 80%
03:00 +14°C° 0 mm 1 mps 731 mmHg 79%
04:00 +14°C° 0 mm 1 mps 730 mmHg 79%
05:00 +15°C° 0 mm 1 mps 730 mmHg 72%
06:00 +18°C° 0 mm 1 mps 730 mmHg 64%
07:00 +19°C° 0 mm 1 mps 731 mmHg 57%
08:00 +21°C° 0 mm 1 mps 730 mmHg 50%
09:00 +23°C° 0 mm 1 mps 730 mmHg 42%
10:00 +25°C° 0 mm 1 mps 729 mmHg 35%
11:00 +27°C° 0 mm 2 mps 729 mmHg 32%
12:00 +28°C° 0 mm 3 mps 728 mmHg 29%
13:00 +30°C° 0 mm 3 mps 727 mmHg 26%
14:00 +29°C° 0 mm 4 mps 727 mmHg 30%
15:00 +28°C° 0 mm 5 mps 727 mmHg 34%
16:00 +28°C° 0 mm 6 mps 726 mmHg 38%
17:00 +26°C° 0 mm 5 mps 726 mmHg 47%
18:00 +23°C° 0 mm 4 mps 727 mmHg 56%
19:00 +21°C° 0 mm 3 mps 727 mmHg 65%
20:00 +20°C° 0 mm 2 mps 727 mmHg 71%
21:00 +19°C° 0 mm 2 mps 728 mmHg 77%
22:00 +19°C° 0 mm 1 mps 728 mmHg 83%
23:00 +19°C° 0 mm 1 mps 728 mmHg 85%

Tomorrow, 6 December, Sunday

Time Temperature Precipitation Wind Pressure Humidity
00:00 +18°C° 0 mm 1 mps 727 mmHg 87%
01:00 +16°C° 0 mm 0 mps 727 mmHg 89%
02:00 +16°C° 0 mm 0 mps 727 mmHg 90%
03:00 +16°C° 0 mm 0 mps 727 mmHg 91%
04:00 +15°C° 0 mm 0 mps 727 mmHg 92%
05:00 +19°C° 0 mm 1 mps 727 mmHg 84%
06:00 +20°C° 0 mm 1 mps 727 mmHg 77%
07:00 +22°C° 0 mm 1 mps 727 mmHg 69%
08:00 +24°C° 0 mm 2 mps 727 mmHg 60%
09:00 +26°C° 0 mm 2 mps 727 mmHg 51%
10:00 +28°C° 0 mm 3 mps 727 mmHg 41%
11:00 +29°C° 0 mm 4 mps 726 mmHg 41%
12:00 +30°C° 0 mm 5 mps 726 mmHg 41%
13:00 +32°C° 0 mm 7 mps 725 mmHg 41%
14:00 +29°C° 0 mm 7 mps 725 mmHg 48%
15:00 +28°C° 0 mm 7 mps 725 mmHg 55%
16:00 +26°C° 0 mm 6 mps 725 mmHg 62%
17:00 +24°C° 0 mm 6 mps 726 mmHg 67%
18:00 +23°C° 0 mm 5 mps 726 mmHg 71%
19:00 +21°C° 0 mm 4 mps 727 mmHg 75%
20:00 +21°C° 0 mm 3 mps 728 mmHg 76%
21:00 +21°C° 0 mm 3 mps 728 mmHg 76%
22:00 +21°C° 0 mm 3 mps 728 mmHg 77%
23:00 +21°C° 0 mm 3 mps 728 mmHg 79%

Day after tomorrow, 7 December, Monday

Time Temperature Precipitation Wind Pressure Humidity
00:00 +20°C° 0 mm 2 mps 727 mmHg 81%
01:00 +20°C° 0 mm 2 mps 727 mmHg 84%
02:00 +20°C° 0 mm 2 mps 727 mmHg 85%
03:00 +20°C° 0 mm 2 mps 727 mmHg 85%
04:00 +20°C° 0 mm 2 mps 727 mmHg 86%
05:00 +20°C° 0 mm 2 mps 727 mmHg 86%
06:00 +20°C° 0 mm 2 mps 728 mmHg 86%
07:00 +20°C° 0 mm 2 mps 728 mmHg 86%
08:00 +21°C° 0.1 mm 2 mps 728 mmHg 82%
09:00 +23°C° 0.1 mm 2 mps 728 mmHg 78%
10:00 +24°C° 0.1 mm 2 mps 728 mmHg 74%
11:00 +25°C° 0.1 mm 2 mps 728 mmHg 70%
12:00 +26°C° 0.1 mm 3 mps 727 mmHg 66%
13:00 +27°C° 0.1 mm 3 mps 727 mmHg 63%
14:00 +26°C° 0 mm 4 mps 727 mmHg 64%
15:00 +26°C° 0 mm 4 mps 726 mmHg 64%
16:00 +26°C° 0 mm 5 mps 726 mmHg 65%
17:00 +25°C° 0 mm 4 mps 727 mmHg 70%
18:00 +22°C° 0 mm 4 mps 727 mmHg 74%
19:00 +21°C° 0 mm 3 mps 727 mmHg 78%
20:00 +21°C° 0 mm 3 mps 728 mmHg 78%
21:00 +20°C° 0 mm 2 mps 728 mmHg 78%
22:00 +21°C° 0 mm 1 mps 728 mmHg 78%
23:00 +21°C° 0 mm 1 mps 727 mmHg 80%

8 December, Tuesday

Time Temperature Precipitation Wind Pressure Humidity
00:00 +18°C° 0 mm 0 mps 727 mmHg 81%
01:00 +18°C° 0 mm 0 mps 726 mmHg 83%
02:00 +18°C° 0 mm 0 mps 726 mmHg 84%
03:00 +17°C° 0 mm 0 mps 726 mmHg 85%
04:00 +17°C° 0 mm 0 mps 726 mmHg 87%
05:00 +21°C° 0 mm 1 mps 726 mmHg 79%
06:00 +22°C° 0 mm 1 mps 726 mmHg 72%
07:00 +24°C° 0 mm 1 mps 726 mmHg 64%
08:00 +25°C° 0 mm 2 mps 726 mmHg 60%
09:00 +27°C° 0 mm 2 mps 726 mmHg 55%
10:00 +29°C° 0 mm 2 mps 726 mmHg 50%
11:00 +29°C° 0 mm 3 mps 725 mmHg 50%
12:00 +29°C° 0 mm 4 mps 725 mmHg 50%
13:00 +30°C° 0 mm 5 mps 725 mmHg 50%
14:00 +29°C° 0 mm 5 mps 724 mmHg 53%
15:00 +28°C° 0 mm 5 mps 724 mmHg 55%
16:00 +27°C° 0 mm 5 mps 724 mmHg 58%
17:00 +26°C° 0 mm 4 mps 724 mmHg 63%
18:00 +23°C° 0 mm 4 mps 725 mmHg 67%
19:00 +22°C° 0 mm 3 mps 726 mmHg 72%
20:00 +21°C° 0.1 mm 2 mps 726 mmHg 75%
21:00 +21°C° 0.1 mm 2 mps 726 mmHg 77%
22:00 +21°C° 0.1 mm 1 mps 727 mmHg 79%
23:00 +21°C° 0 mm 1 mps 726 mmHg 81%

9 December, Wednesday

Time Temperature Precipitation Wind Pressure Humidity
00:00 +20°C° 0 mm 1 mps 726 mmHg 83%
01:00 +20°C° 0 mm 1 mps 726 mmHg 85%
02:00 +20°C° 0 mm 1 mps 725 mmHg 87%
03:00 +19°C° 0 mm 1 mps 725 mmHg 88%
04:00 +19°C° 0 mm 1 mps 725 mmHg 89%
05:00 +20°C° 0 mm 1 mps 726 mmHg 86%
06:00 +20°C° 0 mm 1 mps 726 mmHg 83%
07:00 +19°C° 0 mm 0 mps 726 mmHg 79%
08:00 +22°C° 0.1 mm 1 mps 726 mmHg 73%
09:00 +23°C° 0.1 mm 1 mps 726 mmHg 68%
10:00 +25°C° 0.1 mm 2 mps 726 mmHg 62%
11:00 +26°C° 0.1 mm 3 mps 726 mmHg 57%
12:00 +27°C° 0.1 mm 4 mps 725 mmHg 52%
13:00 +28°C° 0.1 mm 4 mps 725 mmHg 47%
14:00 +27°C° 0 mm 5 mps 725 mmHg 49%
15:00 +26°C° 0 mm 5 mps 724 mmHg 51%
16:00 +25°C° 0 mm 5 mps 724 mmHg 53%
17:00 +23°C° 0 mm 5 mps 725 mmHg 58%
18:00 +22°C° 0 mm 4 mps 725 mmHg 64%
19:00 +21°C° 0 mm 4 mps 726 mmHg 69%
20:00 +20°C° 0 mm 3 mps 726 mmHg 71%
21:00 +20°C° 0 mm 2 mps 726 mmHg 73%
22:00 +21°C° 0 mm 1 mps 727 mmHg 75%
23:00 +20°C° 0.1 mm 1 mps 726 mmHg 78%

10 December, Thursday

Time Temperature Precipitation Wind Pressure Humidity
00:00 +20°C° 0.1 mm 1 mps 726 mmHg 80%
01:00 +19°C° 0.1 mm 1 mps 726 mmHg 82%
02:00 +19°C° 0 mm 1 mps 726 mmHg 83%
03:00 +19°C° 0 mm 1 mps 726 mmHg 85%
04:00 +19°C° 0 mm 1 mps 726 mmHg 86%
05:00 +19°C° 0 mm 1 mps 726 mmHg 81%
06:00 +18°C° 0 mm 0 mps 726 mmHg 76%
07:00 +19°C° 0 mm 0 mps 727 mmHg 71%
08:00 +22°C° 0.2 mm 1 mps 727 mmHg 65%
09:00 +23°C° 0.2 mm 1 mps 726 mmHg 59%
10:00 +25°C° 0.2 mm 2 mps 726 mmHg 52%
11:00 +25°C° 0.2 mm 3 mps 726 mmHg 54%
12:00 +25°C° 0.2 mm 3 mps 725 mmHg 55%
13:00 +25°C° 0.2 mm 4 mps 725 mmHg 56%
14:00 +25°C° 0.1 mm 4 mps 725 mmHg 56%
15:00 +25°C° 0.1 mm 4 mps 724 mmHg 57%
16:00 +25°C° 0.1 mm 5 mps 724 mmHg 57%
17:00 +22°C° 0 mm 4 mps 724 mmHg 61%
18:00 +21°C° 0 mm 4 mps 724 mmHg 64%
19:00 +20°C° 0 mm 3 mps 725 mmHg 68%
20:00 +20°C° 0 mm 3 mps 725 mmHg 68%
21:00 +19°C° 0 mm 2 mps 725 mmHg 69%
22:00 +20°C° 0 mm 1 mps 726 mmHg 70%
23:00 +20°C° 0 mm 1 mps 725 mmHg 69%
Show more